GLD1793 SBFL-SBGR

Flight info

Callsign GLD1793
Flight time 1h 50m
Altitude 55000
Route BODO1B ILVOR DCT DARDI DCT UMDOR DCT XONUG DCT BUXUK MOLE1A
Aircraft BE58/M-SDFGIRY/S

Departure

Time 2026-05-05 21:04
Airport Hercílio Luz International Airport (SBFL)

Arrival

Time 2026-05-05 22:55
Airport São Paulo/Guarulhos–Governor André Franco Montoro International Airport (SBGR)
Time Latitude Longitude Altitude Speed Heading
2026-05-05 21:00 -27.67179 -48.54599 21 ft 0 kts 40°
2026-05-05 21:00 -27.67146 -48.54607 21 ft 7 kts 346°
2026-05-05 21:01 -27.67111 -48.54607 21 ft 0 kts 14°
2026-05-05 21:01 -27.67103 -48.54604 21 ft 5 kts 19°
2026-05-05 21:01 -27.67075 -48.54591 21 ft 4 kts 26°
2026-05-05 21:01 -27.67042 -48.54570 21 ft 9 kts 28°
2026-05-05 21:02 -27.66968 -48.54518 21 ft 15 kts 31°
2026-05-05 21:02 -27.66913 -48.54479 22 ft 2 kts 320°
2026-05-05 21:02 -27.66911 -48.54484 22 ft 0 kts 294°
2026-05-05 21:02 -27.66764 -48.54767 20 ft 82 kts 301°
2026-05-05 21:03 -27.66379 -48.55471 115 ft 118 kts 302°
2026-05-05 21:03 -27.65928 -48.56337 180 ft 141 kts 301°
2026-05-05 21:03 -27.65378 -48.57368 224 ft 162 kts 302°
2026-05-05 21:03 -27.64779 -48.58487 328 ft 171 kts 302°
2026-05-05 21:04 -27.64157 -48.59649 468 ft 174 kts 302°
2026-05-05 21:04 -27.63369 -48.60678 609 ft 177 kts 330°
2026-05-05 21:04 -27.62166 -48.60868 756 ft 180 kts 13°
2026-05-05 21:04 -27.61135 -48.60092 892 ft 182 kts 47°
2026-05-05 21:05 -27.60268 -48.59057 1027 ft 181 kts 39°
2026-05-05 21:05 -27.59277 -48.58222 1183 ft 177 kts 33°
2026-05-05 21:05 -27.58255 -48.57424 1265 ft 181 kts 33°
2026-05-05 21:05 -27.57236 -48.56620 1485 ft 177 kts 33°
2026-05-05 21:06 -27.56235 -48.55826 1697 ft 176 kts 33°
2026-05-05 21:06 -27.55239 -48.55034 1947 ft 175 kts 33°
2026-05-05 21:06 -27.54240 -48.54242 2155 ft 176 kts 32°
2026-05-05 21:06 -27.53202 -48.53530 2378 ft 174 kts 15°
2026-05-05 21:07 -27.52004 -48.53475 2590 ft 173 kts 354°
2026-05-05 21:07 -27.50801 -48.53575 2813 ft 174 kts 354°
2026-05-05 21:07 -27.49588 -48.53619 3031 ft 175 kts 357°
2026-05-05 21:07 -27.48361 -48.53612 3256 ft 177 kts 358°
2026-05-05 21:08 -27.47127 -48.53594 3469 ft 178 kts 358°
2026-05-05 21:08 -27.45902 -48.53578 3664 ft 179 kts 358°
2026-05-05 21:08 -27.44652 -48.53562 3856 ft 179 kts 357°
2026-05-05 21:08 -27.43398 -48.53546 4077 ft 180 kts 357°
2026-05-05 21:09 -27.42200 -48.53530 4282 ft 180 kts 357°
2026-05-05 21:09 -27.40938 -48.53514 4498 ft 180 kts 357°
2026-05-05 21:09 -27.39685 -48.53498 4712 ft 180 kts 356°
2026-05-05 21:09 -27.38427 -48.53482 4932 ft 180 kts 356°
2026-05-05 21:10 -27.37168 -48.53466 5146 ft 181 kts 356°
2026-05-05 21:10 -27.35918 -48.53450 5359 ft 182 kts 356°
2026-05-05 21:10 -27.34646 -48.53435 5539 ft 184 kts 356°
2026-05-05 21:10 -27.33331 -48.53418 5550 ft 193 kts 356°
2026-05-05 21:11 -27.31965 -48.53401 5558 ft 199 kts 356°
2026-05-05 21:11 -27.30567 -48.53382 5560 ft 203 kts 357°
2026-05-05 21:11 -27.29149 -48.53363 5559 ft 205 kts 357°
2026-05-05 21:11 -27.27719 -48.53345 5559 ft 206 kts 357°
2026-05-05 21:12 -27.26288 -48.53326 5562 ft 206 kts 357°
2026-05-05 21:12 -27.24848 -48.53308 5561 ft 207 kts 357°
2026-05-05 21:12 -27.23428 -48.53289 5562 ft 207 kts 357°
2026-05-05 21:12 -27.21987 -48.53270 5557 ft 207 kts 356°
2026-05-05 21:13 -27.20549 -48.53252 5553 ft 207 kts 356°
2026-05-05 21:13 -27.19111 -48.53234 5553 ft 207 kts 356°
2026-05-05 21:13 -27.17669 -48.53216 5554 ft 207 kts 356°
2026-05-05 21:13 -27.16234 -48.53196 5550 ft 205 kts 356°
2026-05-05 21:14 -27.14803 -48.53177 5549 ft 206 kts 356°
2026-05-05 21:14 -27.13363 -48.53160 5549 ft 207 kts 356°
2026-05-05 21:14 -27.11919 -48.53143 5547 ft 207 kts 356°
2026-05-05 21:14 -27.10479 -48.53126 5542 ft 207 kts 356°
2026-05-05 21:15 -27.09039 -48.53109 5549 ft 207 kts 356°
2026-05-05 21:15 -27.07615 -48.53092 5549 ft 207 kts 356°
2026-05-05 21:15 -27.06172 -48.53075 5548 ft 208 kts 356°
2026-05-05 21:15 -27.04743 -48.53058 5546 ft 208 kts 356°
2026-05-05 21:16 -27.03298 -48.53041 5545 ft 208 kts 356°
2026-05-05 21:16 -27.01851 -48.53024 5543 ft 208 kts 356°
2026-05-05 21:16 -27.00406 -48.53007 5545 ft 208 kts 356°
2026-05-05 21:16 -26.98960 -48.52990 5544 ft 207 kts 356°
2026-05-05 21:17 -26.97523 -48.52972 5586 ft 206 kts 356°
2026-05-05 21:17 -26.96083 -48.52955 5585 ft 207 kts 356°
2026-05-05 21:17 -26.94637 -48.52938 5585 ft 207 kts 356°
2026-05-05 21:17 -26.93195 -48.52921 5585 ft 208 kts 356°
2026-05-05 21:18 -26.91817 -48.52904 5581 ft 208 kts 356°
2026-05-05 21:18 -26.90379 -48.52887 5581 ft 208 kts 356°
2026-05-05 21:18 -26.88930 -48.52869 5590 ft 207 kts 356°
2026-05-05 21:18 -26.87492 -48.52851 5602 ft 207 kts 356°
2026-05-05 21:19 -26.86085 -48.52832 5838 ft 197 kts 356°
2026-05-05 21:19 -26.84746 -48.52810 6095 ft 190 kts 356°
2026-05-05 21:19 -26.83434 -48.52788 6358 ft 186 kts 356°
2026-05-05 21:19 -26.82145 -48.52768 6615 ft 184 kts 356°
2026-05-05 21:20 -26.80870 -48.52748 6869 ft 182 kts 356°
2026-05-05 21:20 -26.79608 -48.52732 7031 ft 187 kts 356°
2026-05-05 21:20 -26.78268 -48.52722 7037 ft 197 kts 356°
2026-05-05 21:20 -26.76867 -48.52716 7043 ft 203 kts 356°
2026-05-05 21:21 -26.75437 -48.52713 7046 ft 207 kts 356°
2026-05-05 21:21 -26.74031 -48.52711 7230 ft 199 kts 356°
2026-05-05 21:21 -26.72670 -48.52707 7486 ft 193 kts 356°
2026-05-05 21:21 -26.71346 -48.52702 7763 ft 189 kts 356°
2026-05-05 21:22 -26.70041 -48.52699 8017 ft 186 kts 356°
2026-05-05 21:22 -26.68749 -48.52696 8279 ft 184 kts 356°
2026-05-05 21:22 -26.67471 -48.52697 8543 ft 184 kts 356°
2026-05-05 21:22 -26.66192 -48.52699 8810 ft 183 kts 356°
2026-05-05 21:23 -26.64917 -48.52704 9083 ft 184 kts 356°
2026-05-05 21:23 -26.63639 -48.52712 9358 ft 184 kts 356°
2026-05-05 21:23 -26.62366 -48.52722 9634 ft 184 kts 355°
2026-05-05 21:23 -26.61083 -48.52735 9914 ft 184 kts 355°
2026-05-05 21:24 -26.59783 -48.52753 10054 ft 192 kts 355°
2026-05-05 21:24 -26.58399 -48.52778 10010 ft 204 kts 355°
2026-05-05 21:24 -26.56963 -48.52809 10009 ft 209 kts 355°
2026-05-05 21:24 -26.55493 -48.52843 10011 ft 213 kts 355°
2026-05-05 21:25 -26.54002 -48.52879 10004 ft 215 kts 356°
2026-05-05 21:25 -26.52517 -48.52916 10014 ft 217 kts 356°
2026-05-05 21:25 -26.50987 -48.52954 10013 ft 218 kts 356°
2026-05-05 21:25 -26.49471 -48.52992 10015 ft 218 kts 356°
2026-05-05 21:26 -26.47967 -48.53030 10009 ft 218 kts 356°
2026-05-05 21:26 -26.46476 -48.53068 10007 ft 219 kts 356°
2026-05-05 21:26 -26.44956 -48.53106 10012 ft 219 kts 356°
2026-05-05 21:26 -26.43432 -48.53144 10013 ft 219 kts 356°
2026-05-05 21:27 -26.41907 -48.53182 10009 ft 219 kts 356°
2026-05-05 21:27 -26.40385 -48.53219 10009 ft 219 kts 356°
2026-05-05 21:27 -26.38861 -48.53256 10012 ft 219 kts 356°
2026-05-05 21:27 -26.37334 -48.53293 10013 ft 219 kts 356°
2026-05-05 21:28 -26.35814 -48.53329 10009 ft 219 kts 356°
2026-05-05 21:28 -26.34290 -48.53366 10006 ft 219 kts 356°
2026-05-05 21:28 -26.32791 -48.53423 10005 ft 217 kts 350°
2026-05-05 21:28 -26.31444 -48.54089 10002 ft 213 kts 320°
2026-05-05 21:29 -26.30305 -48.55151 10010 ft 213 kts 320°
2026-05-05 21:29 -26.29037 -48.56024 10008 ft 215 kts 332°
2026-05-05 21:29 -26.27621 -48.56589 10012 ft 218 kts 348°
2026-05-05 21:29 -26.26100 -48.56597 10014 ft 220 kts
2026-05-05 21:30 -26.25093 -48.56459 10009 ft 220 kts
2026-05-05 21:30 -26.23066 -48.56211 10015 ft 220 kts
2026-05-05 21:30 -26.21540 -48.56042 10015 ft 220 kts
2026-05-05 21:30 -26.20019 -48.55873 10016 ft 220 kts
2026-05-05 21:31 -26.19005 -48.55758 10008 ft 220 kts
2026-05-05 21:31 -26.17461 -48.55584 10013 ft 220 kts
2026-05-05 21:31 -26.15953 -48.55414 10016 ft 220 kts
2026-05-05 21:31 -26.14425 -48.55242 10016 ft 220 kts
2026-05-05 21:32 -26.12905 -48.55070 10016 ft 220 kts
2026-05-05 21:32 -26.11381 -48.54898 10014 ft 220 kts
2026-05-05 21:32 -26.09856 -48.54727 10015 ft 220 kts
2026-05-05 21:32 -26.08388 -48.54561 10008 ft 220 kts
2026-05-05 21:33 -26.06866 -48.54390 10011 ft 220 kts
2026-05-05 21:33 -26.05341 -48.54219 10012 ft 220 kts
2026-05-05 21:33 -26.03830 -48.54049 10007 ft 220 kts
2026-05-05 21:33 -26.02305 -48.53877 10012 ft 220 kts
2026-05-05 21:34 -26.00783 -48.53706 10013 ft 220 kts
2026-05-05 21:34 -25.99256 -48.53534 10009 ft 220 kts
2026-05-05 21:34 -25.97728 -48.53362 10014 ft 220 kts
2026-05-05 21:34 -25.96205 -48.53191 10013 ft 220 kts
2026-05-05 21:35 -25.94683 -48.53020 10011 ft 220 kts
2026-05-05 21:35 -25.93155 -48.52849 10014 ft 220 kts
2026-05-05 21:35 -25.91649 -48.52680 10014 ft 220 kts
2026-05-05 21:35 -25.90128 -48.52509 10051 ft 218 kts
2026-05-05 21:36 -25.88632 -48.52341 10145 ft 215 kts
2026-05-05 21:36 -25.87136 -48.52174 10145 ft 217 kts
2026-05-05 21:36 -25.85627 -48.52004 10144 ft 218 kts
2026-05-05 21:36 -25.84114 -48.51835 10142 ft 219 kts
2026-05-05 21:37 -25.82590 -48.51663 10146 ft 219 kts
2026-05-05 21:37 -25.81064 -48.51493 10144 ft 220 kts
2026-05-05 21:37 -25.79541 -48.51322 10144 ft 219 kts
2026-05-05 21:37 -25.78022 -48.51152 10146 ft 219 kts
2026-05-05 21:38 -25.76502 -48.50982 10147 ft 220 kts
2026-05-05 21:38 -25.74984 -48.50812 10147 ft 220 kts
2026-05-05 21:38 -25.73479 -48.50643 10147 ft 220 kts
2026-05-05 21:38 -25.71971 -48.50474 10148 ft 220 kts
2026-05-05 21:39 -25.70426 -48.50302 10148 ft 220 kts
2026-05-05 21:39 -25.68923 -48.50134 10147 ft 220 kts
2026-05-05 21:39 -25.67401 -48.49963 10148 ft 220 kts
2026-05-05 21:39 -25.65879 -48.49793 10148 ft 220 kts
2026-05-05 21:40 -25.64379 -48.49625 10151 ft 220 kts
2026-05-05 21:40 -25.62859 -48.49455 10152 ft 220 kts
2026-05-05 21:40 -25.61337 -48.49286 10150 ft 220 kts
2026-05-05 21:40 -25.59814 -48.49116 10147 ft 220 kts
2026-05-05 21:41 -25.58285 -48.48945 10148 ft 220 kts
2026-05-05 21:41 -25.56764 -48.48775 10148 ft 220 kts
2026-05-05 21:41 -25.55240 -48.48605 10148 ft 220 kts
2026-05-05 21:41 -25.53715 -48.48435 10148 ft 220 kts
2026-05-05 21:42 -25.52208 -48.48267 10149 ft 220 kts
2026-05-05 21:42 -25.50685 -48.48097 10150 ft 220 kts
2026-05-05 21:42 -25.49162 -48.47927 10151 ft 220 kts
2026-05-05 21:42 -25.47639 -48.47758 10152 ft 220 kts
2026-05-05 21:43 -25.46115 -48.47588 10150 ft 220 kts
2026-05-05 21:43 -25.44588 -48.47418 10150 ft 220 kts
2026-05-05 21:43 -25.43068 -48.47249 10146 ft 220 kts
2026-05-05 21:43 -25.41546 -48.47079 10146 ft 220 kts
2026-05-05 21:44 -25.40021 -48.46910 10150 ft 220 kts
2026-05-05 21:44 -25.38500 -48.46740 10150 ft 220 kts
2026-05-05 21:44 -25.36975 -48.46570 10150 ft 220 kts
2026-05-05 21:44 -25.35451 -48.46401 10150 ft 220 kts
2026-05-05 21:45 -25.33932 -48.46232 10155 ft 220 kts
2026-05-05 21:45 -25.32411 -48.46063 10155 ft 220 kts
2026-05-05 21:45 -25.30958 -48.45902 10161 ft 220 kts
2026-05-05 21:45 -25.29436 -48.45733 10161 ft 220 kts
2026-05-05 21:46 -25.27914 -48.45563 10163 ft 220 kts
2026-05-05 21:46 -25.26389 -48.45394 10164 ft 220 kts
2026-05-05 21:46 -25.24869 -48.45225 10164 ft 220 kts
2026-05-05 21:46 -25.23345 -48.45056 10164 ft 220 kts
2026-05-05 21:47 -25.21823 -48.44886 10167 ft 220 kts
2026-05-05 21:47 -25.20301 -48.44716 10167 ft 220 kts
2026-05-05 21:47 -25.18778 -48.44545 10168 ft 220 kts
2026-05-05 21:47 -25.17253 -48.44373 10167 ft 220 kts
2026-05-05 21:48 -25.15727 -48.44202 10168 ft 221 kts
2026-05-05 21:48 -25.14196 -48.44029 10168 ft 221 kts
2026-05-05 21:48 -25.12663 -48.43856 10168 ft 221 kts
2026-05-05 21:48 -25.11153 -48.43685 10170 ft 221 kts
2026-05-05 21:49 -25.09616 -48.43510 10170 ft 221 kts
2026-05-05 21:49 -25.08085 -48.43335 10162 ft 221 kts
2026-05-05 21:49 -25.06535 -48.43157 10015 ft 227 kts
2026-05-05 21:49 -25.04957 -48.42975 9869 ft 229 kts
2026-05-05 21:50 -25.03362 -48.42789 9721 ft 231 kts
2026-05-05 21:50 -25.01751 -48.42598 9573 ft 232 kts
2026-05-05 21:50 -25.00145 -48.42406 9425 ft 233 kts
2026-05-05 21:50 -24.98528 -48.42209 9275 ft 233 kts
2026-05-05 21:51 -24.96923 -48.42000 9126 ft 233 kts
2026-05-05 21:51 -24.95448 -48.41333 8970 ft 233 kts 29°
2026-05-05 21:51 -24.94023 -48.40483 8829 ft 233 kts 24°
2026-05-05 21:51 -24.92528 -48.39814 8682 ft 232 kts 19°
2026-05-05 21:52 -24.89495 -48.38604 8383 ft 232 kts 19°
2026-05-05 21:52 -24.87992 -48.37972 8238 ft 231 kts 19°
2026-05-05 21:52 -24.86487 -48.37341 8092 ft 231 kts 19°
2026-05-05 21:53 -24.84986 -48.36717 7952 ft 230 kts 20°
2026-05-05 21:53 -24.83494 -48.36096 7805 ft 230 kts 20°
2026-05-05 21:53 -24.81993 -48.35471 7664 ft 229 kts 20°
2026-05-05 21:53 -24.80533 -48.34864 7519 ft 229 kts 20°
2026-05-05 21:54 -24.79043 -48.34244 7373 ft 228 kts 20°
2026-05-05 21:54 -24.77561 -48.33628 7232 ft 227 kts 20°
2026-05-05 21:54 -24.76107 -48.33022 7093 ft 227 kts 19°
2026-05-05 21:54 -24.74609 -48.32397 6949 ft 226 kts 19°
2026-05-05 21:55 -24.73137 -48.31788 6815 ft 226 kts 19°
2026-05-05 21:55 -24.71686 -48.31186 6678 ft 226 kts 20°
2026-05-05 21:55 -24.70200 -48.30567 6534 ft 226 kts 19°
2026-05-05 21:55 -24.68733 -48.29956 6386 ft 225 kts 19°
2026-05-05 21:56 -24.67267 -48.29349 6235 ft 224 kts 19°
2026-05-05 21:56 -24.65830 -48.28753 6088 ft 223 kts 20°
2026-05-05 21:56 -24.64379 -48.28150 5942 ft 222 kts 20°
2026-05-05 21:56 -24.62936 -48.27548 5792 ft 221 kts 19°
2026-05-05 21:57 -24.61495 -48.26954 5650 ft 221 kts 20°
2026-05-05 21:57 -24.60056 -48.26358 5504 ft 220 kts 20°
2026-05-05 21:57 -24.58625 -48.25763 5360 ft 219 kts 20°
2026-05-05 21:57 -24.57203 -48.25174 5217 ft 218 kts 20°
2026-05-05 21:58 -24.55805 -48.24594 5075 ft 216 kts 20°
2026-05-05 21:58 -24.54398 -48.24011 4934 ft 216 kts 20°
2026-05-05 21:58 -24.53009 -48.23436 4908 ft 211 kts 20°
2026-05-05 21:58 -24.51651 -48.22874 4906 ft 207 kts 20°
2026-05-05 21:59 -24.50315 -48.22321 4894 ft 204 kts 20°
2026-05-05 21:59 -24.48981 -48.21770 4893 ft 204 kts 20°
2026-05-05 21:59 -24.47657 -48.21221 4898 ft 204 kts 20°
2026-05-05 21:59 -24.46328 -48.20671 4898 ft 204 kts 20°
2026-05-05 22:00 -24.45011 -48.20127 4903 ft 204 kts 20°
2026-05-05 22:00 -24.43699 -48.19584 4903 ft 204 kts 20°
2026-05-05 22:00 -24.42370 -48.19034 4904 ft 204 kts 20°
2026-05-05 22:00 -24.41041 -48.18485 4903 ft 204 kts 20°
2026-05-05 22:01 -24.39709 -48.17935 4904 ft 204 kts 20°
2026-05-05 22:01 -24.38375 -48.17383 4903 ft 204 kts 20°
2026-05-05 22:01 -24.37043 -48.16833 4909 ft 204 kts 20°
2026-05-05 22:01 -24.35714 -48.16284 4908 ft 204 kts 20°
2026-05-05 22:02 -24.34406 -48.15688 4908 ft 204 kts 27°
2026-05-05 22:02 -24.33156 -48.14937 4908 ft 204 kts 28°
2026-05-05 22:02 -24.31911 -48.14195 4909 ft 204 kts 28°
2026-05-05 22:02 -24.30659 -48.13457 4906 ft 204 kts 28°
2026-05-05 22:03 -24.29409 -48.12722 4905 ft 204 kts 28°
2026-05-05 22:03 -24.28161 -48.11986 4905 ft 204 kts 28°
2026-05-05 22:03 -24.26909 -48.11247 4907 ft 204 kts 28°
2026-05-05 22:03 -24.25657 -48.10509 4907 ft 204 kts 28°
2026-05-05 22:04 -24.24403 -48.09770 4915 ft 204 kts 28°
2026-05-05 22:04 -24.23167 -48.09040 4915 ft 205 kts 28°
2026-05-05 22:04 -24.21900 -48.08294 4912 ft 204 kts 28°
2026-05-05 22:04 -24.20667 -48.07568 4913 ft 203 kts 28°
2026-05-05 22:05 -24.19418 -48.06832 4914 ft 204 kts 28°
2026-05-05 22:05 -24.18170 -48.06097 4912 ft 203 kts 28°
2026-05-05 22:05 -24.16928 -48.05366 4911 ft 204 kts 28°
2026-05-05 22:05 -24.15676 -48.04629 4911 ft 204 kts 28°
2026-05-05 22:06 -24.14427 -48.03893 4912 ft 204 kts 28°
2026-05-05 22:06 -24.13172 -48.03155 4912 ft 204 kts 28°
2026-05-05 22:06 -24.11921 -48.02420 4912 ft 204 kts 28°
2026-05-05 22:06 -24.10678 -48.01688 4913 ft 204 kts 28°
2026-05-05 22:07 -24.09425 -48.00952 4909 ft 205 kts 28°
2026-05-05 22:07 -24.08169 -48.00213 4909 ft 205 kts 28°
2026-05-05 22:07 -24.06911 -47.99475 4909 ft 205 kts 28°
2026-05-05 22:07 -24.05654 -47.98735 4909 ft 205 kts 28°
2026-05-05 22:08 -24.04395 -47.97996 4909 ft 205 kts 28°
2026-05-05 22:08 -24.03141 -47.97259 4909 ft 205 kts 28°
2026-05-05 22:08 -24.01897 -47.96529 4914 ft 205 kts 28°
2026-05-05 22:08 -24.00642 -47.95793 4916 ft 204 kts 28°
2026-05-05 22:09 -23.99392 -47.95058 4918 ft 204 kts 28°
2026-05-05 22:09 -23.98137 -47.94322 4916 ft 205 kts 28°
2026-05-05 22:09 -23.96882 -47.93586 4917 ft 204 kts 28°
2026-05-05 22:09 -23.95629 -47.92850 4916 ft 204 kts 28°
2026-05-05 22:10 -23.94382 -47.92119 4914 ft 203 kts 28°
2026-05-05 22:10 -23.93133 -47.91388 4914 ft 203 kts 28°
2026-05-05 22:10 -23.91886 -47.90656 4914 ft 203 kts 28°
2026-05-05 22:10 -23.90638 -47.89925 4916 ft 203 kts 28°
2026-05-05 22:11 -23.89403 -47.89201 4921 ft 203 kts 28°
2026-05-05 22:11 -23.88157 -47.88472 4923 ft 203 kts 28°
2026-05-05 22:11 -23.86911 -47.87742 4922 ft 203 kts 28°
2026-05-05 22:11 -23.85663 -47.87012 4922 ft 203 kts 28°
2026-05-05 22:12 -23.84418 -47.86283 4923 ft 203 kts 28°
2026-05-05 22:12 -23.83168 -47.85551 4923 ft 204 kts 28°
2026-05-05 22:12 -23.81919 -47.84820 4923 ft 204 kts 28°
2026-05-05 22:12 -23.80669 -47.84089 4924 ft 204 kts 28°
2026-05-05 22:13 -23.79419 -47.83358 4924 ft 203 kts 28°
2026-05-05 22:13 -23.78170 -47.82628 4924 ft 203 kts 28°
2026-05-05 22:13 -23.76920 -47.81897 4923 ft 204 kts 28°
2026-05-05 22:13 -23.75811 -47.80995 4921 ft 203 kts 45°
2026-05-05 22:14 -23.74803 -47.79904 4921 ft 204 kts 44°
2026-05-05 22:14 -23.73777 -47.78829 4922 ft 205 kts 44°
2026-05-05 22:14 -23.73081 -47.78099 4922 ft 205 kts 44°
2026-05-05 22:14 -23.71716 -47.76662 4922 ft 206 kts 44°
2026-05-05 22:15 -23.71034 -47.75943 4926 ft 206 kts 44°
2026-05-05 22:15 -23.69999 -47.74853 4926 ft 206 kts 44°
2026-05-05 22:15 -23.68965 -47.73764 4926 ft 206 kts 44°
2026-05-05 22:15 -23.67930 -47.72675 4927 ft 206 kts 44°
2026-05-05 22:16 -23.66893 -47.71584 4935 ft 206 kts 44°
2026-05-05 22:16 -23.65864 -47.70501 4935 ft 207 kts 44°
2026-05-05 22:16 -23.64826 -47.69409 4935 ft 207 kts 44°
2026-05-05 22:16 -23.63791 -47.68321 4927 ft 206 kts 44°
2026-05-05 22:17 -23.62758 -47.67234 4927 ft 206 kts 44°
2026-05-05 22:17 -23.61725 -47.66148 4927 ft 206 kts 44°
2026-05-05 22:17 -23.60690 -47.65060 4927 ft 207 kts 44°
2026-05-05 22:17 -23.59667 -47.63985 4927 ft 207 kts 44°
2026-05-05 22:18 -23.58631 -47.62897 4930 ft 207 kts 44°
2026-05-05 22:18 -23.57596 -47.61809 4930 ft 206 kts 44°
2026-05-05 22:18 -23.56562 -47.60723 4930 ft 207 kts 44°
2026-05-05 22:18 -23.55528 -47.59637 4930 ft 207 kts 44°
2026-05-05 22:19 -23.54490 -47.58549 4930 ft 206 kts 45°
2026-05-05 22:19 -23.53452 -47.57458 4931 ft 206 kts 45°
2026-05-05 22:19 -23.52421 -47.56376 4930 ft 205 kts 45°
2026-05-05 22:19 -23.51391 -47.55297 4930 ft 205 kts 45°
2026-05-05 22:20 -23.50364 -47.54219 4931 ft 205 kts 45°
2026-05-05 22:20 -23.49350 -47.53155 4923 ft 205 kts 45°
2026-05-05 22:20 -23.48318 -47.52073 4924 ft 206 kts 45°
2026-05-05 22:20 -23.47284 -47.50990 4924 ft 206 kts 45°
2026-05-05 22:21 -23.46260 -47.49917 4926 ft 206 kts 45°
2026-05-05 22:21 -23.45226 -47.48833 4924 ft 206 kts 45°
2026-05-05 22:21 -23.44196 -47.47756 4924 ft 205 kts 45°
2026-05-05 22:21 -23.43165 -47.46676 4928 ft 206 kts 45°
2026-05-05 22:22 -23.42134 -47.45596 4928 ft 206 kts 45°
2026-05-05 22:22 -23.41099 -47.44512 4928 ft 206 kts 45°
2026-05-05 22:22 -23.40066 -47.43432 4926 ft 206 kts 45°
2026-05-05 22:22 -23.39037 -47.42355 4926 ft 205 kts 45°
2026-05-05 22:23 -23.38001 -47.41272 4927 ft 205 kts 45°
2026-05-05 22:23 -23.36975 -47.40198 4929 ft 206 kts 45°
2026-05-05 22:23 -23.35954 -47.39129 4930 ft 206 kts 45°
2026-05-05 22:23 -23.34919 -47.38048 4923 ft 206 kts 45°
2026-05-05 22:24 -23.33883 -47.36964 4926 ft 206 kts 45°
2026-05-05 22:24 -23.32870 -47.35906 4924 ft 206 kts 45°
2026-05-05 22:24 -23.31836 -47.34824 4926 ft 206 kts 46°
2026-05-05 22:24 -23.30798 -47.33741 4927 ft 206 kts 46°
2026-05-05 22:25 -23.29763 -47.32659 4923 ft 206 kts 46°
2026-05-05 22:25 -23.28731 -47.31581 4926 ft 206 kts 46°
2026-05-05 22:25 -23.27708 -47.30514 4925 ft 206 kts 45°
2026-05-05 22:25 -23.26675 -47.29434 4926 ft 205 kts 45°
2026-05-05 22:26 -23.25644 -47.28360 4924 ft 205 kts 46°
2026-05-05 22:26 -23.24611 -47.27282 4924 ft 205 kts 45°
2026-05-05 22:26 -23.23577 -47.26204 4924 ft 205 kts 45°
2026-05-05 22:26 -23.22557 -47.25139 4923 ft 206 kts 45°
2026-05-05 22:27 -23.21526 -47.24064 4922 ft 205 kts 46°
2026-05-05 22:27 -23.20495 -47.22990 4920 ft 206 kts 45°
2026-05-05 22:27 -23.19459 -47.21910 4933 ft 207 kts 45°
2026-05-05 22:27 -23.18423 -47.20829 4934 ft 207 kts 45°
2026-05-05 22:28 -23.17381 -47.19745 4934 ft 206 kts 45°
2026-05-05 22:28 -23.16346 -47.18667 4935 ft 206 kts 46°
2026-05-05 22:28 -23.15327 -47.17606 4936 ft 205 kts 46°
2026-05-05 22:28 -23.14303 -47.16523 4936 ft 204 kts 50°
2026-05-05 22:29 -23.13348 -47.15376 4938 ft 204 kts 50°
2026-05-05 22:29 -23.12378 -47.14242 4939 ft 205 kts 50°
2026-05-05 22:29 -23.11410 -47.13107 4939 ft 204 kts 50°
2026-05-05 22:29 -23.10456 -47.11983 4937 ft 205 kts 50°
2026-05-05 22:30 -23.09495 -47.10851 4938 ft 204 kts 50°
2026-05-05 22:30 -23.08531 -47.09714 4939 ft 204 kts 50°
2026-05-05 22:30 -23.07568 -47.08579 4941 ft 204 kts 50°
2026-05-05 22:30 -23.06601 -47.07442 4940 ft 205 kts 50°
2026-05-05 22:31 -23.05637 -47.06305 4943 ft 205 kts 50°
2026-05-05 22:31 -23.04670 -47.05167 4943 ft 205 kts 50°
2026-05-05 22:31 -23.03700 -47.04027 4945 ft 206 kts 50°
2026-05-05 22:31 -23.02744 -47.02900 4942 ft 205 kts 50°
2026-05-05 22:32 -23.01772 -47.01757 4938 ft 206 kts 50°
2026-05-05 22:32 -23.00803 -47.00617 4941 ft 206 kts 50°
2026-05-05 22:32 -22.99834 -46.99476 4941 ft 205 kts 50°
2026-05-05 22:32 -22.98866 -46.98340 4935 ft 205 kts 50°
2026-05-05 22:33 -22.97896 -46.97199 4942 ft 205 kts 50°
2026-05-05 22:33 -22.96928 -46.96062 4940 ft 205 kts 51°
2026-05-05 22:33 -22.95961 -46.94924 4936 ft 203 kts 50°
2026-05-05 22:33 -22.95001 -46.93797 4935 ft 204 kts 50°
2026-05-05 22:34 -22.94039 -46.92667 4937 ft 204 kts 50°
2026-05-05 22:34 -22.93079 -46.91541 4927 ft 202 kts 50°
2026-05-05 22:34 -22.92136 -46.90434 4940 ft 201 kts 50°
2026-05-05 22:34 -22.91202 -46.89338 4936 ft 202 kts 50°
2026-05-05 22:35 -22.90251 -46.88221 4937 ft 202 kts 51°
2026-05-05 22:35 -22.89293 -46.87096 4924 ft 203 kts 50°
2026-05-05 22:35 -22.88332 -46.85969 4932 ft 204 kts 50°
2026-05-05 22:35 -22.87376 -46.84848 4932 ft 204 kts 50°
2026-05-05 22:36 -22.86515 -46.83630 4928 ft 203 kts 64°
2026-05-05 22:36 -22.85856 -46.82278 4922 ft 200 kts 64°
2026-05-05 22:36 -22.85186 -46.80958 4937 ft 200 kts 64°
2026-05-05 22:36 -22.84520 -46.79644 4935 ft 199 kts 64°
2026-05-05 22:37 -22.83860 -46.78337 4933 ft 201 kts 64°
2026-05-05 22:37 -22.83190 -46.77008 4933 ft 201 kts 63°
2026-05-05 22:37 -22.82514 -46.75670 4933 ft 202 kts 64°
2026-05-05 22:37 -22.81848 -46.74350 4928 ft 195 kts 64°
2026-05-05 22:38 -22.81229 -46.73038 4929 ft 196 kts 72°
2026-05-05 22:38 -22.80846 -46.71614 4932 ft 198 kts 77°
2026-05-05 22:38 -22.80458 -46.70175 4935 ft 199 kts 76°
2026-05-05 22:38 -22.80060 -46.68729 4932 ft 200 kts 76°
2026-05-05 22:39 -22.79666 -46.67294 4934 ft 194 kts 76°
2026-05-05 22:39 -22.79395 -46.65913 4923 ft 182 kts 94°
2026-05-05 22:39 -22.79873 -46.64726 4932 ft 176 kts 135°
2026-05-05 22:39 -22.81009 -46.64191 4938 ft 186 kts 173°
2026-05-05 22:40 -22.82322 -46.64398 4955 ft 195 kts 191°
2026-05-05 22:40 -22.83668 -46.64671 4955 ft 198 kts 185°
2026-05-05 22:40 -22.85045 -46.64829 4952 ft 200 kts 182°
2026-05-05 22:40 -22.86436 -46.64956 4953 ft 201 kts 182°
2026-05-05 22:41 -22.87837 -46.65090 4948 ft 201 kts 182°
2026-05-05 22:41 -22.89217 -46.65226 4947 ft 202 kts 182°
2026-05-05 22:41 -22.90635 -46.65366 4948 ft 202 kts 182°
2026-05-05 22:41 -22.92028 -46.65427 4941 ft 199 kts 172°
2026-05-05 22:42 -22.93364 -46.65169 4946 ft 198 kts 166°
2026-05-05 22:42 -22.94736 -46.64860 4956 ft 199 kts 166°
2026-05-05 22:42 -22.96117 -46.64802 4952 ft 201 kts 185°
2026-05-05 22:42 -22.97483 -46.65057 4944 ft 201 kts 187°
2026-05-05 22:43 -22.98869 -46.65266 4939 ft 202 kts 184°
2026-05-05 22:43 -23.00269 -46.65428 4946 ft 202 kts 184°
2026-05-05 22:43 -23.01614 -46.65583 4953 ft 202 kts 184°
2026-05-05 22:43 -23.03015 -46.65748 4954 ft 202 kts 183°
2026-05-05 22:44 -23.04416 -46.65917 4948 ft 202 kts 184°
2026-05-05 22:44 -23.05796 -46.66082 4952 ft 202 kts 183°
2026-05-05 22:44 -23.07211 -46.66201 4947 ft 200 kts 174°
2026-05-05 22:44 -23.08564 -46.65968 4952 ft 199 kts 166°
2026-05-05 22:45 -23.09944 -46.65868 4944 ft 202 kts 184°
2026-05-05 22:45 -23.11332 -46.66150 4953 ft 203 kts 188°
2026-05-05 22:45 -23.12736 -46.66367 4949 ft 204 kts 183°
2026-05-05 22:45 -23.14153 -46.66533 4950 ft 205 kts 184°
2026-05-05 22:46 -23.15565 -46.66722 4958 ft 205 kts 185°
2026-05-05 22:46 -23.16977 -46.66922 4954 ft 206 kts 185°
2026-05-05 22:46 -23.18399 -46.67119 4953 ft 203 kts 185°
2026-05-05 22:46 -23.19777 -46.67310 4949 ft 196 kts 185°
2026-05-05 22:47 -23.21114 -46.67496 4957 ft 191 kts 184°
2026-05-05 22:47 -23.22413 -46.67675 4954 ft 189 kts 184°
2026-05-05 22:47 -23.23711 -46.67856 4949 ft 187 kts 184°
2026-05-05 22:47 -23.24997 -46.68033 4950 ft 186 kts 184°
2026-05-05 22:48 -23.26282 -46.68211 4952 ft 186 kts 184°
2026-05-05 22:48 -23.27566 -46.68385 4951 ft 186 kts 184°
2026-05-05 22:48 -23.28851 -46.68555 4954 ft 185 kts 184°
2026-05-05 22:48 -23.30130 -46.68722 4956 ft 185 kts 184°
2026-05-05 22:49 -23.31409 -46.68885 4961 ft 185 kts 184°
2026-05-05 22:49 -23.32696 -46.69045 4957 ft 186 kts 184°
2026-05-05 22:49 -23.33966 -46.69023 4961 ft 182 kts 160°
2026-05-05 22:49 -23.35001 -46.68279 4957 ft 179 kts 138°
2026-05-05 22:50 -23.35924 -46.67384 4966 ft 181 kts 137°
2026-05-05 22:50 -23.36858 -46.66458 4968 ft 182 kts 137°
2026-05-05 22:50 -23.37790 -46.65543 4969 ft 180 kts 136°
2026-05-05 22:50 -23.38730 -46.64632 4969 ft 181 kts 137°
2026-05-05 22:51 -23.39670 -46.63721 4969 ft 180 kts 137°
2026-05-05 22:51 -23.40608 -46.62810 4971 ft 180 kts 137°
2026-05-05 22:51 -23.41544 -46.61906 4975 ft 180 kts 137°
2026-05-05 22:51 -23.42476 -46.61002 4975 ft 180 kts 137°
2026-05-05 22:52 -23.43409 -46.60094 4976 ft 180 kts 137°
2026-05-05 22:52 -23.44328 -46.59197 4997 ft 174 kts 135°
2026-05-05 22:52 -23.44991 -46.58114 4908 ft 174 kts 111°
2026-05-05 22:52 -23.45359 -46.56821 4331 ft 188 kts 105°
2026-05-05 22:53 -23.45377 -46.55469 3752 ft 166 kts 80°
2026-05-05 22:53 -23.45029 -46.54323 3407 ft 162 kts 72°
2026-05-05 22:53 -23.44696 -46.53133 3243 ft 165 kts 76°
2026-05-05 22:53 -23.44399 -46.52027 3094 ft 142 kts 75°
2026-05-05 22:54 -23.44147 -46.51041 2940 ft 131 kts 76°
2026-05-05 22:54 -23.43896 -46.50100 2808 ft 129 kts 74°
2026-05-05 22:54 -23.43654 -46.49200 2685 ft 127 kts 77°
2026-05-05 22:54 -23.43407 -46.48283 2506 ft 123 kts 74°
2026-05-05 22:55 -23.43183 -46.47472 2462 ft 93 kts 74°
2026-05-05 22:55 -23.43062 -46.46992 2465 ft 37 kts 75°
2026-05-05 22:55 -23.43000 -46.46760 2466 ft 9 kts 51°
2026-05-05 22:55 -23.42953 -46.46765 2465 ft 11 kts 355°
2026-05-05 22:56 -23.42907 -46.46776 2464 ft 0 kts 341°
2026-05-05 22:56 -23.42894 -46.46780 2464 ft 6 kts 341°
2026-05-05 22:57 -23.42865 -46.46792 2464 ft 9 kts 340°
2026-05-05 22:57 -23.42860 -46.46878 2464 ft 16 kts 253°
2026-05-05 22:57 -23.42896 -46.47000 2465 ft 12 kts 253°
2026-05-05 22:57 -23.42924 -46.47112 2466 ft 17 kts 253°
2026-05-05 22:58 -23.42962 -46.47248 2462 ft 20 kts 253°
2026-05-05 22:58 -23.43003 -46.47396 2464 ft 20 kts 255°
2026-05-05 22:58 -23.43033 -46.47510 2462 ft 2 kts 253°
2026-05-05 22:58 -23.43041 -46.47538 2466 ft 6 kts 253°
2026-05-05 22:59 -23.43059 -46.47605 2464 ft 15 kts 253°
2026-05-05 22:59 -23.43101 -46.47759 2464 ft 26 kts 252°
2026-05-05 22:59 -23.43150 -46.47936 2463 ft 19 kts 255°
2026-05-05 22:59 -23.43186 -46.48075 2467 ft 19 kts 252°
2026-05-05 23:00 -23.43224 -46.48213 2463 ft 0 kts 253°
2026-05-05 23:00 -23.43226 -46.48219 2464 ft 6 kts 253°
2026-05-05 23:00 -23.43247 -46.48292 2463 ft 17 kts 253°
2026-05-05 23:01 -23.43288 -46.48349 2464 ft 10 kts 204°
2026-05-05 23:01 -23.43346 -46.48350 2464 ft 11 kts 166°
2026-05-05 23:01 -23.43478 -46.48308 2465 ft 23 kts 165°
2026-05-05 23:01 -23.43631 -46.48259 2462 ft 22 kts 163°
2026-05-05 23:02 -23.43735 -46.48227 2463 ft 9 kts 165°
2026-05-05 23:02 -23.43800 -46.48206 2460 ft 11 kts 163°
2026-05-05 23:02 -23.43875 -46.48181 2464 ft 10 kts 162°
2026-05-05 23:02 -23.43882 -46.48179 2463 ft 1 kts 162°
2026-05-05 23:03 -23.43903 -46.48171 2464 ft 4 kts 145°
2026-05-05 23:03 -23.43918 -46.48148 2462 ft 3 kts 93°
2026-05-05 23:03 -23.43920 -46.48131 2464 ft 3 kts 115°
2026-05-05 23:03 -23.43942 -46.48114 2464 ft 5 kts 167°
2026-05-05 23:04 -23.43976 -46.48106 2465 ft 5 kts 167°
2026-05-05 23:04 -23.44001 -46.48091 2466 ft 4 kts 85°
2026-05-05 23:04 -23.43991 -46.48087 2464 ft 0 kts 339°